N8256C KDKX-KMOR

Flight info

Callsign N8256C
Flight time 0h 20m
Altitude 4000
Route KTYS
Aircraft C172/L-SFG/C

Departure

Time 2026-05-03 23:46
Airport Knoxville Downtown Island Airport (KDKX)

Arrival

Time 2026-05-04 00:06
Airport Morristown Regional Airport (KMOR)
Time Latitude Longitude Altitude Speed Heading
2026-05-03 23:33 35.96283 -83.87259 829 ft 0 kts 345°
2026-05-03 23:41 35.96284 -83.87259 829 ft 0 kts 345°
2026-05-03 23:41 35.96299 -83.87259 828 ft 3 kts 20°
2026-05-03 23:41 35.96312 -83.87227 828 ft 5 kts 79°
2026-05-03 23:41 35.96325 -83.87163 827 ft 8 kts 74°
2026-05-03 23:42 35.96341 -83.87083 827 ft 10 kts 74°
2026-05-03 23:42 35.96363 -83.86992 827 ft 11 kts 76°
2026-05-03 23:42 35.96383 -83.86887 827 ft 13 kts 75°
2026-05-03 23:42 35.96381 -83.86795 826 ft 7 kts 70°
2026-05-03 23:43 35.96384 -83.86789 826 ft 0 kts 40°
2026-05-03 23:44 35.96387 -83.86787 826 ft 2 kts 29°
2026-05-03 23:44 35.96423 -83.86777 825 ft 7 kts 360°
2026-05-03 23:44 35.96478 -83.86792 824 ft 9 kts 343°
2026-05-03 23:45 35.96490 -83.86861 825 ft 13 kts 257°
2026-05-03 23:45 35.96422 -83.87189 828 ft 62 kts 254°
2026-05-03 23:45 35.96337 -83.87747 1011 ft 64 kts 262°
2026-05-03 23:45 35.96341 -83.88346 1129 ft 74 kts 271°
2026-05-03 23:46 35.96372 -83.88964 1357 ft 72 kts 274°
2026-05-03 23:46 35.96661 -83.89484 1509 ft 81 kts 321°
2026-05-03 23:46 35.97233 -83.89688 1715 ft 84 kts 344°
2026-05-03 23:46 35.97812 -83.89774 1862 ft 91 kts 356°
2026-05-03 23:47 35.98391 -83.89435 2030 ft 96 kts 42°
2026-05-03 23:47 35.98723 -83.88709 2193 ft 98 kts 68°
2026-05-03 23:47 35.98949 -83.87936 2392 ft 96 kts 69°
2026-05-03 23:47 35.99138 -83.87126 2585 ft 96 kts 74°
2026-05-03 23:48 35.99327 -83.86294 2667 ft 104 kts 75°
2026-05-03 23:48 35.99483 -83.85428 2644 ft 106 kts 80°
2026-05-03 23:48 35.99615 -83.84534 2620 ft 105 kts 79°
2026-05-03 23:48 35.99822 -83.83672 2587 ft 105 kts 70°
2026-05-03 23:49 35.99921 -83.82787 2525 ft 106 kts 96°
2026-05-03 23:49 35.99840 -83.81884 2515 ft 103 kts 95°
2026-05-03 23:49 35.99917 -83.81001 2498 ft 103 kts 83°
2026-05-03 23:49 36.00007 -83.80124 2459 ft 104 kts 87°
2026-05-03 23:50 36.00048 -83.79241 2439 ft 103 kts 85°
2026-05-03 23:50 36.00154 -83.78657 2417 ft 104 kts 70°
2026-05-03 23:50 36.00544 -83.77599 2403 ft 102 kts 65°
2026-05-03 23:50 36.00840 -83.76815 2414 ft 99 kts 65°
2026-05-03 23:51 36.01096 -83.76012 2337 ft 103 kts 71°
2026-05-03 23:51 36.01346 -83.75188 2353 ft 100 kts 63°
2026-05-03 23:51 36.01704 -83.74409 2479 ft 105 kts 59°
2026-05-03 23:51 36.01978 -83.73595 2509 ft 100 kts 72°
2026-05-03 23:52 36.02264 -83.72813 2483 ft 101 kts 59°
2026-05-03 23:52 36.02648 -83.72083 2481 ft 101 kts 52°
2026-05-03 23:52 36.03056 -83.71384 2485 ft 101 kts 50°
2026-05-03 23:52 36.03476 -83.70684 2487 ft 101 kts 51°
2026-05-03 23:53 36.03880 -83.69971 2499 ft 99 kts 52°
2026-05-03 23:53 36.04295 -83.69282 2503 ft 101 kts 49°
2026-05-03 23:53 36.04730 -83.68582 2500 ft 104 kts 50°
2026-05-03 23:53 36.05141 -83.67833 2495 ft 105 kts 59°
2026-05-03 23:54 36.05503 -83.67038 2495 ft 106 kts 61°
2026-05-03 23:54 36.05853 -83.66245 2494 ft 105 kts 62°
2026-05-03 23:54 36.06212 -83.65451 2476 ft 106 kts 62°
2026-05-03 23:54 36.06579 -83.64646 2470 ft 106 kts 61°
2026-05-03 23:55 36.06930 -83.63858 2472 ft 105 kts 61°
2026-05-03 23:55 36.07282 -83.63061 2476 ft 105 kts 61°
2026-05-03 23:55 36.07628 -83.62261 2475 ft 105 kts 60°
2026-05-03 23:55 36.07965 -83.61462 2480 ft 105 kts 62°
2026-05-03 23:56 36.08304 -83.60658 2482 ft 106 kts 62°
2026-05-03 23:56 36.08655 -83.59847 2479 ft 106 kts 62°
2026-05-03 23:56 36.09006 -83.59045 2479 ft 106 kts 61°
2026-05-03 23:56 36.09358 -83.58234 2476 ft 106 kts 62°
2026-05-03 23:57 36.09702 -83.57426 2477 ft 105 kts 62°
2026-05-03 23:57 36.10039 -83.56624 2476 ft 105 kts 62°
2026-05-03 23:57 36.10370 -83.55821 2478 ft 105 kts 62°
2026-05-03 23:57 36.10696 -83.55017 2478 ft 105 kts 62°
2026-05-03 23:58 36.10994 -83.54182 2483 ft 106 kts 67°
2026-05-03 23:58 36.11262 -83.53337 2482 ft 106 kts 68°
2026-05-03 23:58 36.11529 -83.52483 2484 ft 106 kts 67°
2026-05-03 23:58 36.11793 -83.51627 2487 ft 106 kts 67°
2026-05-03 23:59 36.12058 -83.50783 2487 ft 106 kts 66°
2026-05-03 23:59 36.12340 -83.49930 2487 ft 106 kts 65°
2026-05-03 23:59 36.12622 -83.49080 2488 ft 106 kts 65°
2026-05-03 23:59 36.12905 -83.48235 2489 ft 107 kts 65°
2026-05-04 00:00 36.13191 -83.47388 2487 ft 107 kts 65°
2026-05-04 00:00 36.13480 -83.46536 2489 ft 107 kts 65°
2026-05-04 00:00 36.13767 -83.45692 2489 ft 107 kts 65°
2026-05-04 00:00 36.14057 -83.44840 2489 ft 107 kts 65°
2026-05-04 00:01 36.14347 -83.43986 2489 ft 107 kts 66°
2026-05-04 00:01 36.14624 -83.43167 2468 ft 99 kts 66°
2026-05-04 00:01 36.14887 -83.42396 2357 ft 94 kts 66°
2026-05-04 00:01 36.15131 -83.41670 2256 ft 91 kts 66°
2026-05-04 00:02 36.15366 -83.40961 2208 ft 85 kts 65°
2026-05-04 00:02 36.15585 -83.40288 2221 ft 85 kts 65°
2026-05-04 00:02 36.15805 -83.39606 2227 ft 86 kts 65°
2026-05-04 00:02 36.16030 -83.38908 2228 ft 87 kts 65°
2026-05-04 00:03 36.16257 -83.38204 2228 ft 89 kts 65°
2026-05-04 00:03 36.16490 -83.37495 2227 ft 89 kts 62°
2026-05-04 00:03 36.16799 -83.36831 2225 ft 89 kts 54°
2026-05-04 00:03 36.17127 -83.36173 2225 ft 90 kts 54°
2026-05-04 00:04 36.17476 -83.35548 2236 ft 86 kts 47°
2026-05-04 00:04 36.17856 -83.34973 2134 ft 85 kts 51°
2026-05-04 00:04 36.18298 -83.34546 2008 ft 81 kts
2026-05-04 00:04 36.18795 -83.34748 1894 ft 72 kts 321°
2026-05-04 00:05 36.19190 -83.35119 1751 ft 70 kts 303°
2026-05-04 00:05 36.19201 -83.35657 1594 ft 67 kts 251°
2026-05-04 00:05 36.18928 -83.36116 1468 ft 66 kts 233°
2026-05-04 00:05 36.18651 -83.36510 1381 ft 60 kts 233°
2026-05-04 00:06 36.18386 -83.36906 1280 ft 53 kts 231°
2026-05-04 00:06 36.18177 -83.37177 1280 ft 34 kts 234°
2026-05-04 00:06 36.17958 -83.37516 1282 ft 71 kts 230°
2026-05-04 00:06 36.17617 -83.38000 1467 ft 74 kts 230°
2026-05-04 00:07 36.17284 -83.38510 1654 ft 77 kts 230°
2026-05-04 00:07 36.17029 -83.39095 1833 ft 79 kts 262°
2026-05-04 00:07 36.17183 -83.39754 2029 ft 81 kts 287°
2026-05-04 00:07 36.17389 -83.40405 2205 ft 83 kts 283°
2026-05-04 00:08 36.17570 -83.41085 2401 ft 83 kts 282°
2026-05-04 00:08 36.17743 -83.41780 2524 ft 91 kts 283°
2026-05-04 00:08 36.17935 -83.42553 2520 ft 93 kts 284°
2026-05-04 00:08 36.18119 -83.43300 2518 ft 90 kts 284°
2026-05-04 00:09 36.18302 -83.44040 2517 ft 88 kts 284°
2026-05-04 00:09 36.18481 -83.44759 2520 ft 88 kts 284°
2026-05-04 00:09 36.18663 -83.45486 2517 ft 87 kts 284°
2026-05-04 00:09 36.18802 -83.46212 2512 ft 85 kts 265°
2026-05-04 00:10 36.18549 -83.46848 2517 ft 85 kts 230°
2026-05-04 00:10 36.18122 -83.47368 2512 ft 85 kts 225°
2026-05-04 00:10 36.17683 -83.47869 2513 ft 85 kts 225°
2026-05-04 00:10 36.17253 -83.48371 2516 ft 84 kts 224°
2026-05-04 00:11 36.16816 -83.48864 2503 ft 86 kts 225°
2026-05-04 00:11 36.16373 -83.49367 2503 ft 85 kts 225°
2026-05-04 00:11 36.15934 -83.49858 2504 ft 85 kts 223°
2026-05-04 00:11 36.15483 -83.50341 2502 ft 85 kts 224°
2026-05-04 00:12 36.15040 -83.50841 2498 ft 85 kts 225°
2026-05-04 00:12 36.14614 -83.51344 2498 ft 85 kts 226°
2026-05-04 00:12 36.14194 -83.51859 2496 ft 84 kts 227°
2026-05-04 00:12 36.13783 -83.52380 2507 ft 84 kts 228°
2026-05-04 00:13 36.13380 -83.52907 2499 ft 85 kts 229°
2026-05-04 00:13 36.12976 -83.53447 2496 ft 85 kts 230°
2026-05-04 00:13 36.12579 -83.53994 2498 ft 85 kts 230°
2026-05-04 00:13 36.12188 -83.54541 2493 ft 85 kts 230°
2026-05-04 00:14 36.11798 -83.55097 2496 ft 85 kts 230°
2026-05-04 00:14 36.11416 -83.55651 2494 ft 85 kts 230°
2026-05-04 00:14 36.11029 -83.56220 2496 ft 86 kts 231°
2026-05-04 00:14 36.10649 -83.56784 2496 ft 86 kts 231°
2026-05-04 00:15 36.10264 -83.57362 2497 ft 86 kts 231°
2026-05-04 00:15 36.09885 -83.57936 2495 ft 86 kts 231°
2026-05-04 00:15 36.09502 -83.58520 2494 ft 86 kts 231°
2026-05-04 00:15 36.09147 -83.59126 2492 ft 86 kts 236°
2026-05-04 00:16 36.08804 -83.59722 2494 ft 85 kts 235°
2026-05-04 00:16 36.08454 -83.60317 2492 ft 85 kts 234°
2026-05-04 00:16 36.08106 -83.60906 2495 ft 84 kts 234°
2026-05-04 00:16 36.07758 -83.61491 2496 ft 85 kts 234°
2026-05-04 00:17 36.07424 -83.62086 2496 ft 85 kts 238°
2026-05-04 00:17 36.07097 -83.62692 2494 ft 84 kts 237°
2026-05-04 00:17 36.06770 -83.63297 2493 ft 84 kts 238°
2026-05-04 00:17 36.06444 -83.63915 2491 ft 85 kts 238°
2026-05-04 00:18 36.06137 -83.64534 2490 ft 85 kts 243°
2026-05-04 00:18 36.05883 -83.65196 2491 ft 85 kts 244°
2026-05-04 00:18 36.05636 -83.65871 2493 ft 86 kts 244°
2026-05-04 00:18 36.05393 -83.66542 2486 ft 86 kts 244°
2026-05-04 00:19 36.05148 -83.67220 2497 ft 86 kts 245°
2026-05-04 00:19 36.04900 -83.67902 2492 ft 87 kts 244°
2026-05-04 00:19 36.04655 -83.68573 2491 ft 86 kts 245°
2026-05-04 00:19 36.04404 -83.69254 2490 ft 86 kts 244°
2026-05-04 00:20 36.04158 -83.69915 2493 ft 85 kts 245°
2026-05-04 00:20 36.03907 -83.70580 2492 ft 85 kts 245°
2026-05-04 00:20 36.03656 -83.71243 2494 ft 85 kts 244°
2026-05-04 00:20 36.03410 -83.71898 2497 ft 84 kts 245°
2026-05-04 00:21 36.03159 -83.72566 2497 ft 85 kts 245°
2026-05-04 00:21 36.02913 -83.73229 2496 ft 85 kts 245°
2026-05-04 00:21 36.02650 -83.73880 2492 ft 85 kts 240°
2026-05-04 00:21 36.02351 -83.74511 2494 ft 84 kts 239°
2026-05-04 00:22 36.02059 -83.75133 2496 ft 84 kts 240°
2026-05-04 00:22 36.01767 -83.75764 2497 ft 84 kts 240°
2026-05-04 00:22 36.01479 -83.76392 2498 ft 84 kts 240°
2026-05-04 00:22 36.01190 -83.77026 2498 ft 84 kts 240°
2026-05-04 00:23 36.00906 -83.77653 2498 ft 84 kts 240°
2026-05-04 00:23 36.00619 -83.78287 2497 ft 83 kts 241°
2026-05-04 00:23 36.00334 -83.78918 2500 ft 84 kts 240°
2026-05-04 00:23 36.00051 -83.79545 2496 ft 84 kts 240°
2026-05-04 00:24 35.99766 -83.80177 2501 ft 83 kts 241°
2026-05-04 00:24 35.99484 -83.80802 2492 ft 84 kts 240°
2026-05-04 00:24 35.99202 -83.81426 2495 ft 83 kts 240°
2026-05-04 00:24 35.98917 -83.82057 2498 ft 84 kts 240°
2026-05-04 00:25 35.98632 -83.82687 2498 ft 84 kts 241°
2026-05-04 00:25 35.98349 -83.83315 2498 ft 84 kts 240°
2026-05-04 00:25 35.98066 -83.83955 2495 ft 84 kts 244°
2026-05-04 00:25 35.97785 -83.84586 2495 ft 84 kts 238°
2026-05-04 00:26 35.97479 -83.85213 2497 ft 84 kts 239°
2026-05-04 00:26 35.97184 -83.85832 2494 ft 84 kts 239°
2026-05-04 00:26 35.96891 -83.86460 2494 ft 84 kts 240°
2026-05-04 00:26 35.96601 -83.87088 2495 ft 84 kts 240°
2026-05-04 00:27 35.96219 -83.87627 2494 ft 85 kts 209°
2026-05-04 00:27 35.95618 -83.87646 2494 ft 91 kts 163°
2026-05-04 00:27 35.95154 -83.87097 2494 ft 98 kts 118°
2026-05-04 00:27 35.95092 -83.86294 2483 ft 89 kts 81°
2026-05-04 00:28 35.95169 -83.85600 2446 ft 78 kts 86°
2026-05-04 00:28 35.95221 -83.84879 2255 ft 80 kts 79°
2026-05-04 00:28 35.95676 -83.84586 1979 ft 81 kts 339°
2026-05-04 00:28 35.96196 -83.84759 1839 ft 76 kts 333°
2026-05-04 00:29 35.96639 -83.85014 1684 ft 68 kts 306°
2026-05-04 00:29 35.96738 -83.85549 1453 ft 68 kts 266°
2026-05-04 00:29 35.96679 -83.86138 1210 ft 72 kts 247°
2026-05-04 00:29 35.96524 -83.86748 941 ft 75 kts 251°
2026-05-04 00:30 35.96393 -83.87286 842 ft 57 kts 256°
2026-05-04 00:30 35.96312 -83.87663 827 ft 28 kts 239°
2026-05-04 00:30 35.96273 -83.87862 824 ft 20 kts 252°
2026-05-04 00:30 35.96231 -83.87918 823 ft 5 kts 140°
2026-05-04 00:31 35.96222 -83.87873 824 ft 7 kts 95°
2026-05-04 00:31 35.96214 -83.87792 825 ft 11 kts 96°
2026-05-04 00:31 35.96214 -83.87676 827 ft 15 kts 72°
2026-05-04 00:31 35.96246 -83.87534 828 ft 16 kts 76°
2026-05-04 00:32 35.96273 -83.87398 829 ft 16 kts 79°
2026-05-04 00:32 35.96250 -83.87327 829 ft 6 kts 68°
2026-05-04 00:32 35.96265 -83.87320 829 ft 0 kts 340°
2026-05-04 00:34 35.96267 -83.87338 830 ft 0 kts 345°